Regional Weather Roundup
Issued by NWS Upton, NY

Current Version | Previous Version | Graphics & Text | Print | Product List | Glossary Off
Versions: 1 2 3 4 5 6 7 8 9 10 11 12 13 14 15 16 17 18 19 20 21 22 23 24 25 26 27 28 29 30 31 32 33 34 35 36 37 38 39 40 41 42 43 44 45 46 47 48 49 50

000
ASUS41 KOKX 181005
RWROKX

REGIONAL WEATHER ROUNDUP
NATIONAL WEATHER SERVICE NEW YORK NY
600 AM EDT THU SEP 18 2014

NOTE: "FAIR" INDICATES FEW OR NO CLOUDS BELOW 12,000 FEET WITH NO
SIGNIFICANT WEATHER AND/OR OBSTRUCTIONS TO VISIBILITY.

NYZ071-072-176-178-NJZ106-104-181100-
NEW YORK CITY METRO AREA


CITY           SKY/WX    TMP DP  RH WIND       PRES   REMARKS
CENTRAL PARK   CLEAR     58  51  78 NW3       30.00R
LAGUARDIA APRT PTCLDY    62  52  69 NW6       29.97R
KENNEDY INTL   PTCLDY    59  52  77 CALM      29.98R
NEWARK/LIBERTY CLEAR     54  50  86 CALM      29.97S
BRNX BOT. GARD   N/A     54  50  87 NE2       29.99R
TETERBORO      CLEAR     53  47  79 CALM      29.97R
$$

NYZ177-179-078>081-181100-
LONG ISLAND NEW YORK

CITY           SKY/WX    TMP DP  RH WIND       PRES   REMARKS
FARMINGDALE    CLEAR     56  51  84 CALM      29.97S
ISLIP          PTCLDY    53  50  89 CALM      29.95S
SHIRLEY        CLEAR     49  48  97 CALM      29.97S
WESTHAMPTON    PTCLDY    43  40  89 CALM      29.98S
MONTAUK POINT    N/A     62  58  86 N5        29.97S
$$

NYZ052-065-067-181100-
HUDSON VALLEY

CITY           SKY/WX    TMP DP  RH WIND       PRES   REMARKS
WHITE PLAINS   CLEAR     51  48  89 NW8       29.97S
NEWBURGH       CLEAR     46  46 100 CALM      29.99R
MONTGOMERY     FOG       40  38  93 CALM      29.99R VSB 3/4
POUGHKEEPSIE   CLEAR     44  41  89 CALM      29.98S
ALBANY         PTCLDY    45  42  89 CALM      29.99R
$$

NJZ001-105-106-008-010-013-015-019>022-104-181100-
NEW JERSEY

CITY           SKY/WX    TMP DP  RH WIND       PRES   REMARKS
NEWARK/LIBERTY CLEAR     54  50  86 CALM      29.97S
TETERBORO      CLEAR     53  47  79 CALM      29.97R
CALDWELL       CLEAR     47  44  90 CALM      29.99R
MORRISTOWN     FOG       43  39  87 CALM      29.99R VSB 1
SOMERVILLE     CLEAR     44  41  89 CALM      29.97R
LINDEN         FAIR      57  54  88 CALM      29.99S
SUSSEX         CLOUDY    43  40  89 CALM      30.00R
ANDOVER          N/A     43  42  97 CALM      30.00R
TRENTON        CLEAR     49  46  90 W3        29.98R
MILLVILLE      CLEAR     48  46  93 CALM      29.99R
ATLANTIC CITY  CLEAR     50  48  93 CALM      29.99R
WRIGHTSTOWN    CLEAR     48  47  98 CALM      29.97R
TOMS RIVER     CLEAR     43  39  87 CALM      29.99R
BELMAR         CLEAR     54  46  76 NW3       29.98R
$$

PAZ047>061-062-071-181100-
EASTERN PENNSYLVANIA

CITY           SKY/WX    TMP DP  RH WIND       PRES   REMARKS
PHILADELPHIA   PTCLDY    56  50  80 CALM      29.99R
ALLENTOWN      CLOUDY    49  45  86 CALM      29.99S
SCRANTON       CLOUDY    47  43  86 CALM      30.01R
$$

CTZ002-004>006-009-010-012-RIZ004-006-007-MAZ004-011-015-181100-
SOUTHERN NEW ENGLAND
 IN CT

CITY           SKY/WX    TMP DP  RH WIND       PRES   REMARKS
BRADLEY INTL   PTCLDY    45  42  89 CALM      29.97S
HARTFORD       MOCLDY    46  45  96 CALM      29.98S
DANBURY        CLEAR     43  41  93 SW3       30.00R
WTRBRY/OXFORD  PTCLDY    46  39  76 N3        29.99S
BRIDGEPORT     FAIR      53  49  86 N3        29.97S
MERIDEN        CLEAR     46  43  89 CALM      29.98R
NEW HAVEN      PTCLDY    51  46  83 CALM      29.97S
CHESTER        FAIR      48  46  93 NW3       29.98R
GROTON         CLEAR     46  46 100 N5        29.96S
WILLIMANTIC    MOCLDY    43  40  89 N3        29.98S

 IN RI

CITY           SKY/WX    TMP DP  RH WIND       PRES   REMARKS
PROVIDENCE     PTCLDY    51  46  83 W3        29.97R
BLOCK ISLAND   CLEAR     57  52  82 NW5       29.96S
WESTERLY       CLEAR     44  42  93 CALM      29.97S

 IN MA

CITY           SKY/WX    TMP DP  RH WIND       PRES   REMARKS
BOSTON         CLEAR     56  46  69 W7        29.95R
WORCESTER      CLEAR     50  43  77 W8        29.97R
WESTFIELD      CLOUDY    43  41  93 CALM      29.98R FOG
PROVINCETOWN   CLEAR     57  48  72 W6        29.95S
NANTUCKET      CLEAR     51  49  92 CALM      29.94S
$$

ANZ330-335-338-340-345-350-353-355-181100-
COASTAL MARINE OBSERVATIONS


STATION/POSITION TIME  SKY/WX   TEMP    WIND        PRES    VSBY  WAVE
                                AIR SEA DIR/SP/G                  HT/PER
                 (UTC)          (F)     (DEG/KT/KT) (MB)    (MI)  (FT/S)
NY HARB ENTRANCE 1000            65 70  270/ 10/ 12 1015.0          3/14
4S FIRE IS       1000               70                N/A           4/14
23SW MTP         1000                                 N/A           3/13
HUDSON CANYON    1000            67 73   10/ 10/ 12 1014.2          6/14
EXECUTION ROCKS  1000            62 71  250/  4/  6   N/A
WESTERN LI SOUND 1000            61     310/  4/  6   N/A           0
CENTRAL LI SOUND 0900            63 70  320/  8/ 10   N/A           1
EASTERN LI SOUND 0900            59 68  360/  6/  8   N/A
ROBBINS REEF     1000            60     280/  5/  6 1013.7
$$


>>>>>>>>>>>>>>>>>>>>>>>>>>>> KEY <<<<<<<<<<<<<<<<<<<<<<<<<<<
>                                                          <
>     SKY/WX - SKY CONDITION/PRESENT WEATHER               <
>     TMP    - TEMPERATURE IN FAHRENHEIT                   <
>     DP     - DEWPOINT IN FAHRENHEIT                      <
>     RH     - RELATIVE HUMIDITY IN PERCENT                <
>     WIND   - DIRECTION AND SPEED IN MPH                  <
>     PRES   - MEAN SEA LEVEL PRESSURE IN INCHES OF HG     <
>     WCI    - WIND CHILL INDEX                            <
>     VSB    - VISIBILITY IN MILES                         <
>     HX     - HEAT INDEX                                  <
>     TC     - TEMPERATURE IN CELSIUS                      <
>     VRB    - VARIABLE WIND DIRECTION                     <
>                                                          <
>>>>>>>>>>>>>>>>>>>>>>>>>>>> KEY <<<<<<<<<<<<<<<<<<<<<<<<<<<




USA.gov is the U.S. government's official web portal to all federal, state and local government web resources and services.